GSAT-11 (43824 NORAD) Tracking and Keplerian Element Data

This shows tracking and keplerian element data for the satellite.

Feedback or suggestion? Click here.




ElementValue
Catalog43824
NameGSAT-11
Epoch Orbit51
Epoch Day20.46255979
Epoch Year2019
RAAN274.846
Inclination0.0898
Eccentricity0.0002767
Argument of Perigee138.9049
Mean Anonmoly306.258
Mean Motion1.00270351
Decay Rate-7.8E-07
L11 43824U 18100B 19020.46255979 -.00000078 00000-0 00000+0 0 9995
L22 43824 0.0898 274.8460 0002767 138.9049 306.2580 1.00270351 514

Live tracking and technical data element details for GSAT-11 (NORAD 43824). GSAT-11 can be tracked NOW for your location showing map with azimuth and elevation plus other details from your city location.

Track the satellite on the map from your city or location and see movement details for azimuth, elevation, latitude, longitude, range, height, and movement on the map or in text.







IsCatalogInMostPopularTable: catalog: 43824, numindb: 24
Update: records affected: 1



GetName: 43824 GSAT-11

Hit Count: updated at: Wed, 23 Jan 2019 02:40:02 GMT